Погода в Куржине

Россия / Томская область     58°54′33″N   82°33′53″E
темп.,
°C
ветер,
м/с
пор.,
м/с
влажн.,
%
обл.,
%
осадки,
мм/ч
давл.,
гПа
погр.,
м
19 сентября, вс
вс1901:00+6ююз399096 0.8 1003392
04:00+4ююз41091100 0.1 1003518
07:00+4ююз41087100 0.1 1003503
10:00+6ю4886100 0.0 1003721
13:00+6ююв4890100 0.2 1001956
16:00+7ююв51095100 4.4 10001192
19:00+6ю3897100 5.3 999526
22:00+6юз3798100 1.1 999456
20 сентября, пн
пн2001:00+4зюз2791100 1.3 1000373
04:00+3ююз2596100 0.0 1000200
07:00+1юз2798100 0.0 1002227
10:00+3юз3596100 0.3 1003603
13:00+3юз3595100 0.5 1004674
16:00+3юз3589100 0.2 1005692
19:00+2зюз2395100 0.3 1006145
22:00+2з2598100 0.1 1006384
21 сентября, вт
вт2101:00+2зюз2599100 0.4 1006336
04:00+2юз2698100 0.3 1007358
07:00+2зюз3698100 1.2 1007445
10:00+3сз4898100 1.5 1007874
13:00+2сз5998100 2.6 1009736
16:00+3сз5895100 0.2 1011814
19:00+2сз4897100 0.4 1013636
22:00+1зюз2395100 0.1 101481
22 сентября, ср
ср2201:00+1з3894100 0.2 1014301
04:000з3797100 0.0 1015242
07:00+1зюз2598100 0.1 1015279
10:00+1зюз2499100 0.3 1015195
13:00+2зюз2392100 0.7 1016493
16:00+3зюз2395100 0.4 1016387
19:00+2юз12100100 0.6 1017148
22:00+1ююв019996 0.1 101882
23 сентября, чт
чт2301:00+1всв1297100 0.1 1019121
04:00+1св1396100 0.0 1019156
07:00+1ссв1396100 0.0 1020172
10:00+1с2393100 0.0 1022338
13:00+3с2383100 0.1 1023694
16:00+4сз2376100 0.3 1023729
19:00+2сз248599 0.4 1025138
22:00+1зсз2489100 0.1 102594